Regional Weather Roundup
Issued by NWS

Home | Current Version | Previous Version | Text Only | Print | Product List | Glossary On
Versions: 1 2 3 4 5 6 7 8 9 10 11 12 13 14 15 16 17 18 19 20 21 22 23 24 25 26 27 28 29 30 31 32 33 34 35 36 37 38 39 40 41 42 43 44 45 46 47 48 49 50
000
ASUS46 KSEW 241010
RWRWA

WASHINGTON REGIONAL WEATHER ROUNDUP
NATIONAL WEATHER SERVICE SEATTLE WA
200 AM PST TUE JAN 24 2017

NOTE:"FAIR" INDICATES FEW OR NO CLOUDS BELOW 12,000 FEET WITH NO
SIGNIFICANT WEATHER AND/OR OBSTRUCTIONS TO VISIBILITY.

WAZ507-509-555>559-241100-
SEATTLE, TACOMA, EVERETT, AND VICINITY

CITY           SKY/WX    TMP DP  RH WIND       PRES   REMARKS
EVERETT        PTCLDY    33  32  96 CALM      30.02S FOG
BOEING FIELD   PTCLDY    32  31  96 SE6       30.05R
RENTON         PTCLDY    31  30  96 SE3       30.05R
SEATAC AIRPORT PTCLDY    34  30  85 SE7       30.03R
JBLM-MCCHORD   CLOUDY    27  27 100 CALM      30.04R FOG
PUYALLUP         N/A     28  28 100 MISG      30.03R
BREMERTON        N/A     27  27 100 CALM      30.06R
JBLM-FT LEWIS  FOG       30  30 100 CALM      30.03S VSB<1/4
TACOMA NARROWS FOG       36  36 100 CALM      30.04R VSB 1/4
$$

WAZ001-503-506-510-514-515-241100-
NORTH INTERIOR

CITY           SKY/WX    TMP DP  RH WIND       PRES   REMARKS
BELLINGHAM     CLOUDY    34  34 100 CALM      30.02R
FRIDAY HARBOR  PTCLDY    32  30  92 CALM      30.04R FOG
EASTSOUND      PTCLDY    32  32 100 S3        30.02R FOG
PORT ANGELES   CLEAR     33  30  88 E5        30.01S
EDIZ HOOK      FAIR      39  33  77 SE6       30.03R
PORT TOWNSEND  MOCLDY    25  25 100 CALM      30.04S FOG
NAS WHIDBEY    MOCLDY    36  32  85 SE8       30.07R
ARLINGTON      NOT AVBL
BURLINGTON     PTCLDY    32  30  93 CALM      30.04R
$$

WAZ020-022-039-040-504-511-512-241100-
SOUTHWEST INTERIOR

CITY           SKY/WX    TMP DP  RH WIND       PRES   REMARKS
SHELTON        PTCLDY    30  28  92 CALM      30.01S
OLYMPIA        FOG       26  26 100 CALM      30.04R VSB 1/2
CHEHALIS       FOG       32  32 100 CALM      30.04R VSB<1/4
KELSO          CLEAR     27  26  96 CALM      30.05R
VANCOUVER      CLEAR     32  30  92 CALM      30.03R
SCAPPOOSE, OR  CLEAR     30  30 100 CALM      30.03R
PORTLAND, OR   CLEAR     31  30  96 E5        30.03R
$$

WAZ021-516-517-241100-
WASHINGTON COAST

CITY           SKY/WX    TMP DP  RH WIND       PRES   REMARKS
FORKS          MOCLDY    29  28  96 CALM      30.04R
HOQUIAM        CLEAR     32  32 100 NE6       30.03S FOG
ASTORIA, OR    CLEAR     33  28  81 SE5       30.03R
$$

WAZ019-023-024-040-567>569-241100-
CASCADE MOUNTAINS AND COLUMBIA GORGE

CITY           SKY/WX    TMP DP  RH WIND       PRES   REMARKS
STAMPEDE PASS  NOT AVBL
TROUTDALE, OR  CLEAR     31  30  96 CALM      30.03R
THE DALLES, OR CLOUDY    34  32  92 CALM      30.05R
$$

WAZ026-027-041>044-520-521-241100-
EAST SLOPES

CITY           SKY/WX    TMP DP  RH WIND       PRES   REMARKS
OMAK           CLOUDY    32  29  88 CALM      29.96R FOG
WENATCHEE      CLEAR     24  24 100 W9        29.96R
ELLENSBURG     FOG       24  21  88 NE5       29.95R VSB 1/4
YAKIMA         CLOUDY    25  22  88 W8        30.00R FOG
$$

WAZ028-034-035-241100-
COLUMBIA BASIN

CITY           SKY/WX    TMP DP  RH WIND       PRES   REMARKS
EPHRATA        PTCLDY    21  16  81 N7        29.96R HAZE
MOSES LAKE     CLOUDY    29  26  89 S5        29.96S
PASCO          CLOUDY    34  31  88 SW6       30.03R
HERMISTON, OR  CLOUDY    32  32 100 SW3       30.01R FOG
$$

WAZ036>038-241100-
NORTHEAST WASHINGTON

CITY           SKY/WX    TMP DP  RH WIND       PRES   REMARKS
SPOKANE GEIGER FOG       29  29 100 SW5       29.90R VSB 1/4
SPOKANE FELTS  CLOUDY    32  31  96 W6        29.92R
FAIRCHILD AFB  FOG       29  29 100 W5        29.89R VSB 1/2
COEURDALENE,ID CLOUDY    30  29  96 CALM      29.90R FOG
DEER PARK      CLOUDY    31  30  96 CALM      29.91R
$$

WAZ029>033-241100-
SOUTHEAST WASHINGTON

CITY           SKY/WX    TMP DP  RH WIND       PRES   REMARKS
PULLMAN        SNOW      30  27  88 W10       29.92R VSB 1/4 WCI  21
LEWISTON, ID   CLOUDY    31  28  89 S5        29.95R
WALLA WALLA    CLOUDY    31  29  92 CALM      29.98R FOG
PENDLETON, OR  CLOUDY    30  30 100 SW5       29.96S FOG
$$



USA.gov is the U.S. government's official web portal to all federal, state and local government web resources and services.